{"data":{"norad_id":54673,"intl_designator":"2022-166AH","name":"ONEWEB-0610","alt_names":[],"object_type":"PAYLOAD","status":"ACTIVE","operator":null,"country":"UK","launch_date":"2022-12-08","launch_site_code":"AFETR","launch_vehicle":null,"mission":null,"orbit_class":"UNKNOWN","rcs_meters":null,"size_class":null,"mass_kg":null,"dimensions":null,"purposes":["comms"],"wikipedia_slug":null,"has_3d_model":false,"image_url":null,"decayed_at":null,"tle_current":{"epoch":"2026-09-20T04:29:52.453824Z","epoch_age_seconds":48975,"freshness":"FRESH","line1":"1 54673U 22166AH  26263.18741266 -.00000015  00000+0 -68112-4 0  9995","line2":"2 54673  87.9282 225.0701 0002628  85.0864 275.0570 13.21826437184005","mean_motion":13.21826437,"eccentricity":0.0002628,"inclination_deg":87.9282,"raan_deg":225.0701,"arg_perigee_deg":85.0864,"mean_anomaly_deg":275.057,"bstar":-6.8112e-5,"rev_number":18400,"period_min":108.94017245322,"perigee_km":1175.7660154825,"apogee_km":1179.7373905848,"semimajor_km":7555.8887030336,"source":"CELESTRAK","updated_at":"2026-09-20T09:00:44.747775Z"}}}